{"data":{"norad_id":22824,"intl_designator":"1993-061B","name":"STELLA","alt_names":[],"object_type":"PAYLOAD","status":"ACTIVE","operator":null,"country":"FR","launch_date":"1993-09-26","launch_site_code":"FRGUI","launch_vehicle":null,"mission":null,"orbit_class":"UNKNOWN","rcs_meters":0.17,"size_class":null,"mass_kg":null,"dimensions":null,"purposes":["science"],"wikipedia_slug":null,"has_3d_model":false,"image_url":null,"decayed_at":null,"tle_current":{"epoch":"2026-09-20T03:54:39.890016Z","epoch_age_seconds":41298,"freshness":"FRESH","line1":"1 22824U 93061B   26263.16296169 -.00000052  00000+0 -27346-5 0  9991","line2":"2 22824  98.7627 327.7091 0005745 329.3679  61.7613 14.27472482718324","mean_motion":14.27472482,"eccentricity":0.0005745,"inclination_deg":98.7627,"raan_deg":327.7091,"arg_perigee_deg":329.3679,"mean_anomaly_deg":61.7613,"bstar":-2.7346e-6,"rev_number":71832,"period_min":100.87760136591,"perigee_km":796.06781049966,"apogee_km":804.31571024533,"semimajor_km":7178.3287603725,"source":"CELESTRAK","updated_at":"2026-09-20T09:00:47.281718Z"}}}